Current Weather Conditions: station 62154

sailwx.info

Wind from 170 at 18 knots

Wave height 0.5 meters (1 feet), 3 second period

Air temperature 16.1° C
Dewpoint 16.1° C

Last reported at 2018-Jul-16 09:00 UTC.
Time now 2018-Jul-16 10:32 UTC

Location: N 56°24' E 002°12'.
View on Google Maps.

See reports from other nearby stations

  
Tides and Currents Weather Stations Pressure Air Temp Water Temp Dewpoint Dewpoint Depression Visibility Wind Speed Wind Dir Waves Ship Positions
date/time (UTC)wind fromknots sea level pressurealtimeterstation pressurevisibilityair tempwater tempwave heightnotes
2018-Jul-16 09:00 170 18 16.1 0.5
2018-Jul-16 08:00 170 18 16.2 0.6
2018-Jul-16 07:00 180 17 16.0 0.5
2018-Jul-16 06:00 180 18 15.9 0.6
2018-Jul-16 05:00 190 17 16.0 0.6
2018-Jul-16 04:00 190 18 16.3 0.6
2018-Jul-16 03:00 190 17 16.2 0.6
2018-Jul-16 02:00 200 17 16.0 0.5
2018-Jul-16 01:00 200 14 15.8 0.5
2018-Jul-16 00:00 200 14 15.8 0.5
2018-Jul-15 23:00 210 13 15.7 0.5
2018-Jul-15 22:00 210 13 15.7 0.5
2018-Jul-15 21:00 200 12 15.6 0.5
2018-Jul-15 20:00 200 11 15.6 0.5
2018-Jul-15 19:00 210 11 15.9 0.5
2018-Jul-15 18:00 210 11 16.6 0.5
2018-Jul-15 17:00 210 11 17.4 0.5
2018-Jul-15 16:00 210 11 17.9 0.5
2018-Jul-15 15:00 190 9 17.7 0.5
2018-Jul-15 14:00 190 9 17.5 0.5
2018-Jul-15 13:00 200 7 18.3 0.5
2018-Jul-15 12:00 210 8 17.5 0.5
2018-Jul-15 11:00 210 9 17.3 0.5
2018-Jul-15 10:00 220 9 16.5 0.5
2018-Jul-15 09:00 220 11 16.3 0.5
2018-Jul-15 08:00 220 11 16.0 0.5
2018-Jul-15 07:00 210 11 15.4 0.5
2018-Jul-15 06:00 230 9 15.4 0.5
2018-Jul-15 05:00 230 12 15.4 0.6
2018-Jul-15 04:00 230 11 15.4 0.6
2018-Jul-15 03:00 230 12 15.4 0.6
2018-Jul-15 02:00 230 13 15.5 0.7
2018-Jul-15 01:00 220 14 15.3 0.6
2018-Jul-15 00:00 220 14 15.1 0.6
2018-Jul-14 23:00 230 14 14.9 0.6
2018-Jul-14 22:00 230 13 14.6 0.6
2018-Jul-14 21:00 220 12 15.0 0.6
2018-Jul-14 20:00 220 11 15.3 0.6
2018-Jul-14 19:00 220 9 15.9 0.6
2018-Jul-14 18:00 220 11 16.2 0.6
2018-Jul-14 17:00 210 11 16.6 0.7
2018-Jul-14 16:00 220 13 17.8 0.8
2018-Jul-14 15:00 220 13 17.9 0.4
2018-Jul-14 14:00 230 13 17.8 0.4
2018-Jul-14 13:00 220 13 18.0 0.4
2018-Jul-14 12:00 220 13 17.4 0.6
2018-Jul-14 11:00 210 13 16.5 0.4